Time,TemperatureF,DewpointF,PressureIn,WindDirection,WindDirectionDegrees,WindSpeedMPH,WindSpeedGustMPH,Humidity,HourlyPrecipIn,Conditions,Clouds,dailyrainin,SoftwareType,DateUTC
2013-03-16 00:00:00,56.9,46.8,30.36,SE,126,1.0,1.0,69,0.00,,,0.00,Wunderground v.1.15,2013-03-16 07:00:00,
2013-03-16 00:10:00,56.4,46.4,30.36,SE,126,0.0,0.0,69,0.00,,,0.00,Wunderground v.1.15,2013-03-16 07:10:00,
2013-03-16 00:20:00,55.4,46.5,30.35,SE,125,0.0,1.0,72,0.00,,,0.00,Wunderground v.1.15,2013-03-16 07:20:00,
2013-03-16 00:25:00,55.5,46.6,30.35,ESE,112,1.0,1.0,72,0.00,,,0.00,Wunderground v.1.15,2013-03-16 07:25:00,
2013-03-16 00:30:00,55.6,46.3,30.35,ESE,112,1.0,1.0,71,0.00,,,0.00,Wunderground v.1.15,2013-03-16 07:30:00,
2013-03-16 00:35:00,55.6,46.7,30.35,ESE,112,0.0,1.0,72,0.00,,,0.00,Wunderground v.1.15,2013-03-16 07:35:00,
2013-03-16 00:45:00,55.5,46.6,30.35,ESE,112,0.0,0.0,72,0.00,,,0.00,Wunderground v.1.15,2013-03-16 07:45:00,
2013-03-16 00:50:00,55.5,46.6,30.35,ESE,111,0.0,0.0,72,0.00,,,0.00,Wunderground v.1.15,2013-03-16 07:50:00,
2013-03-16 01:00:00,55.8,46.5,30.35,ESE,108,0.0,1.0,71,0.00,,,0.00,Wunderground v.1.15,2013-03-16 08:00:00,
2013-03-16 01:10:00,55.8,46.5,30.34,ESE,103,2.0,2.0,71,0.00,,,0.00,Wunderground v.1.15,2013-03-16 08:10:00,
2013-03-16 01:20:00,55.5,46.2,30.35,NW,307,1.0,1.0,71,0.00,,,0.00,Wunderground v.1.15,2013-03-16 08:20:00,
2013-03-16 01:30:00,54.5,46.4,30.35,ENE,58,0.0,0.0,74,0.00,,,0.00,Wunderground v.1.15,2013-03-16 08:30:00,
2013-03-16 01:35:00,54.2,46.1,30.35,NE,56,1.0,1.0,74,0.00,,,0.00,Wunderground v.1.15,2013-03-16 08:35:00,
2013-03-16 01:45:00,53.5,46.1,30.35,ENE,57,0.0,1.0,76,0.00,,,0.00,Wunderground v.1.15,2013-03-16 08:45:00,
2013-03-16 01:55:00,53.2,45.8,30.35,NE,56,0.0,0.0,76,0.00,,,0.00,Wunderground v.1.15,2013-03-16 08:55:00,
2013-03-16 02:00:00,53.0,46.0,30.35,ENE,57,0.0,0.0,77,0.00,,,0.00,Wunderground v.1.15,2013-03-16 09:00:00,
2013-03-16 02:10:00,52.4,45.7,30.36,ENE,57,0.0,0.0,78,0.00,,,0.00,Wunderground v.1.15,2013-03-16 09:10:00,
2013-03-16 02:20:00,51.6,45.6,30.36,ENE,57,0.0,1.0,80,0.00,,,0.00,Wunderground v.1.15,2013-03-16 09:20:00,
2013-03-16 02:25:00,51.4,45.4,30.36,NNE,22,1.0,1.0,80,0.00,,,0.00,Wunderground v.1.15,2013-03-16 09:25:00,
2013-03-16 02:30:00,51.2,45.6,30.36,NNE,22,1.0,1.0,81,0.00,,,0.00,Wunderground v.1.15,2013-03-16 09:30:00,
2013-03-16 02:40:00,51.1,46.1,30.36,NNE,22,0.0,0.0,83,0.00,,,0.00,Wunderground v.1.15,2013-03-16 09:40:00,
2013-03-16 02:45:00,51.2,46.5,30.36,NNE,23,1.0,1.0,84,0.00,,,0.00,Wunderground v.1.15,2013-03-16 09:45:00,
2013-03-16 02:55:00,51.3,46.6,30.36,ENE,65,0.0,1.0,84,0.00,,,0.00,Wunderground v.1.15,2013-03-16 09:55:00,
2013-03-16 03:00:00,51.1,46.4,30.36,ENE,65,0.0,0.0,84,0.00,,,0.00,Wunderground v.1.15,2013-03-16 10:00:00,
2013-03-16 03:10:00,50.6,45.9,30.36,ENE,65,0.0,0.0,84,0.00,,,0.00,Wunderground v.1.15,2013-03-16 10:10:00,
2013-03-16 03:15:00,50.7,46.0,30.36,ENE,66,0.0,0.0,84,0.00,,,0.00,Wunderground v.1.15,2013-03-16 10:15:00,
2013-03-16 03:25:00,51.2,46.2,30.36,ENE,65,0.0,0.0,83,0.00,,,0.00,Wunderground v.1.15,2013-03-16 10:25:00,
2013-03-16 03:35:00,50.8,45.5,30.35,ENE,65,0.0,0.0,82,0.00,,,0.00,Wunderground v.1.15,2013-03-16 10:35:00,
2013-03-16 03:40:00,50.6,45.6,30.35,ENE,65,0.0,0.0,83,0.00,,,0.00,Wunderground v.1.15,2013-03-16 10:40:00,
2013-03-16 03:50:00,50.6,45.6,30.35,ESE,120,1.0,1.0,83,0.00,,,0.00,Wunderground v.1.15,2013-03-16 10:50:00,
2013-03-16 04:00:00,50.4,45.4,30.35,South,190,0.0,1.0,83,0.00,,,0.00,Wunderground v.1.15,2013-03-16 11:00:00,
2013-03-16 04:10:00,50.1,45.8,30.34,ESE,122,1.0,1.0,85,0.00,,,0.00,Wunderground v.1.15,2013-03-16 11:10:00,
2013-03-16 04:20:00,50.5,45.8,30.34,SE,125,0.0,0.0,84,0.00,,,0.00,Wunderground v.1.15,2013-03-16 11:20:00,
2013-03-16 04:25:00,50.7,46.0,30.35,ESE,122,0.0,1.0,84,0.00,,,0.00,Wunderground v.1.15,2013-03-16 11:25:00,
2013-03-16 04:35:00,50.8,45.8,30.35,SE,126,0.0,1.0,83,0.00,,,0.00,Wunderground v.1.15,2013-03-16 11:35:00,
2013-03-16 04:40:00,50.5,45.5,30.34,ESE,122,0.0,0.0,83,0.00,,,0.00,Wunderground v.1.15,2013-03-16 11:40:00,
2013-03-16 04:50:00,50.2,45.6,30.35,WSW,255,0.0,2.0,84,0.00,,,0.00,Wunderground v.1.15,2013-03-16 11:50:00,
2013-03-16 05:00:00,49.2,45.2,30.35,West,277,1.0,1.0,86,0.00,,,0.00,Wunderground v.1.15,2013-03-16 12:00:00,
2013-03-16 05:10:00,48.6,44.9,30.35,West,277,0.0,0.0,87,0.00,,,0.00,Wunderground v.1.15,2013-03-16 12:10:00,
2013-03-16 05:15:00,48.4,45.0,30.35,West,277,0.0,0.0,88,0.00,,,0.00,Wunderground v.1.15,2013-03-16 12:15:00,
2013-03-16 05:25:00,48.5,45.4,30.35,West,276,0.0,0.0,89,0.00,,,0.00,Wunderground v.1.15,2013-03-16 12:25:00,
2013-03-16 05:30:00,48.1,44.7,30.35,West,276,0.0,1.0,88,0.00,,,0.00,Wunderground v.1.15,2013-03-16 12:30:00,
2013-03-16 05:40:00,48.0,44.9,30.35,West,277,0.0,0.0,89,0.00,,,0.00,Wunderground v.1.15,2013-03-16 12:40:00,
2013-03-16 05:50:00,47.5,44.4,30.34,West,277,0.0,0.0,89,0.00,,,0.00,Wunderground v.1.15,2013-03-16 12:50:00,
2013-03-16 05:55:00,47.4,44.3,30.34,West,277,0.0,0.0,89,0.00,,,0.00,Wunderground v.1.15,2013-03-16 12:55:00,
2013-03-16 06:00:00,47.3,44.2,30.34,West,277,0.0,0.0,89,0.00,,,0.00,Wunderground v.1.15,2013-03-16 13:00:00,
2013-03-16 06:10:00,47.2,44.1,30.34,West,263,0.0,0.0,89,0.00,,,0.00,Wunderground v.1.15,2013-03-16 13:10:00,
2013-03-16 06:20:00,46.8,44.0,30.34,West,262,0.0,0.0,90,0.00,,,0.00,Wunderground v.1.15,2013-03-16 13:20:00,
2013-03-16 06:30:00,47.0,44.2,30.35,West,274,0.0,0.0,90,0.00,,,0.00,Wunderground v.1.15,2013-03-16 13:30:00,
2013-03-16 06:40:00,46.9,44.4,30.34,West,274,0.0,0.0,91,0.00,,,0.00,Wunderground v.1.15,2013-03-16 13:40:00,
2013-03-16 06:45:00,47.0,44.8,30.35,West,274,0.0,0.0,92,0.00,,,0.00,Wunderground v.1.15,2013-03-16 13:45:00,
2013-03-16 06:55:00,46.7,44.5,30.35,West,274,0.0,0.0,92,0.00,,,0.00,Wunderground v.1.15,2013-03-16 13:55:00,
2013-03-16 07:00:00,46.5,44.0,30.36,West,274,0.0,0.0,91,0.00,,,0.00,Wunderground v.1.15,2013-03-16 14:00:00,
2013-03-16 07:10:00,46.2,44.0,30.36,West,276,0.0,0.0,92,0.00,,,0.00,Wunderground v.1.15,2013-03-16 14:10:00,
2013-03-16 07:20:00,46.0,43.8,30.36,West,276,0.0,0.0,92,0.00,,,0.00,Wunderground v.1.15,2013-03-16 14:20:00,
2013-03-16 07:25:00,46.0,43.8,30.36,West,276,0.0,0.0,92,0.00,,,0.00,Wunderground v.1.15,2013-03-16 14:25:00,
2013-03-16 07:35:00,45.8,43.6,30.37,West,276,0.0,0.0,92,0.00,,,0.00,Wunderground v.1.15,2013-03-16 14:35:00,
2013-03-16 07:45:00,45.9,44.0,30.37,West,276,0.0,0.0,93,0.00,,,0.00,Wunderground v.1.15,2013-03-16 14:45:00,
2013-03-16 07:50:00,46.6,44.7,30.37,West,276,0.0,0.0,93,0.00,,,0.00,Wunderground v.1.15,2013-03-16 14:50:00,
2013-03-16 07:55:00,47.6,45.4,30.37,West,276,0.0,0.0,92,0.00,,,0.00,Wunderground v.1.15,2013-03-16 14:55:00,
2013-03-16 08:00:00,48.1,45.3,30.37,West,274,0.0,0.0,90,0.00,,,0.00,Wunderground v.1.15,2013-03-16 15:00:00,
2013-03-16 08:10:00,49.6,45.9,30.38,West,274,0.0,0.0,87,0.00,,,0.00,Wunderground v.1.15,2013-03-16 15:10:00,
2013-03-16 08:15:00,50.3,46.3,30.38,West,274,0.0,0.0,86,0.00,,,0.00,Wunderground v.1.15,2013-03-16 15:15:00,
2013-03-16 08:20:00,50.9,46.6,30.38,West,274,0.0,0.0,85,0.00,,,0.00,Wunderground v.1.15,2013-03-16 15:20:00,
2013-03-16 08:30:00,52.0,47.6,30.39,West,274,0.0,0.0,85,0.00,,,0.00,Wunderground v.1.15,2013-03-16 15:30:00,
2013-03-16 08:35:00,52.5,48.1,30.39,West,274,0.0,0.0,85,0.00,,,0.00,Wunderground v.1.15,2013-03-16 15:35:00,
2013-03-16 08:40:00,52.6,47.3,30.39,West,274,0.0,1.0,82,0.00,,,0.00,Wunderground v.1.15,2013-03-16 15:40:00,
2013-03-16 08:50:00,52.2,47.5,30.40,WSW,255,0.0,0.0,84,0.00,,,0.00,Wunderground v.1.15,2013-03-16 15:50:00,
2013-03-16 08:55:00,52.3,47.3,30.40,WSW,255,0.0,0.0,83,0.00,,,0.00,Wunderground v.1.15,2013-03-16 15:55:00,
2013-03-16 09:00:00,52.2,47.2,30.40,WSW,255,0.0,0.0,83,0.00,,,0.00,Wunderground v.1.15,2013-03-16 16:00:00,
2013-03-16 09:10:00,53.1,48.7,30.39,SSE,150,0.0,0.0,85,0.00,,,0.00,Wunderground v.1.15,2013-03-16 16:10:00,
2013-03-16 09:15:00,54.7,49.6,30.39,SE,126,0.0,1.0,83,0.00,,,0.00,Wunderground v.1.15,2013-03-16 16:15:00,
2013-03-16 09:20:00,55.3,48.2,30.39,SE,126,0.0,1.0,77,0.00,,,0.00,Wunderground v.1.15,2013-03-16 16:20:00,
2013-03-16 09:30:00,56.8,49.0,30.39,SE,126,0.0,0.0,75,0.00,,,0.00,Wunderground v.1.15,2013-03-16 16:30:00,
2013-03-16 09:40:00,55.2,47.4,30.40,West,264,1.0,1.0,75,0.00,,,0.00,Wunderground v.1.15,2013-03-16 16:40:00,
2013-03-16 09:50:00,56.4,48.9,30.39,North,8,0.0,0.0,76,0.00,,,0.00,Wunderground v.1.15,2013-03-16 16:50:00,
2013-03-16 09:55:00,57.4,48.1,30.39,West,260,0.0,1.0,71,0.00,,,0.00,Wunderground v.1.15,2013-03-16 16:55:00,
2013-03-16 10:00:00,57.9,48.9,30.39,East,82,0.0,3.0,72,0.00,,,0.00,Wunderground v.1.15,2013-03-16 17:00:00,
2013-03-16 10:10:00,58.5,48.0,30.39,WNW,302,1.0,1.0,68,0.00,,,0.00,Wunderground v.1.15,2013-03-16 17:10:00,
2013-03-16 10:20:00,58.3,48.9,30.38,North,353,1.0,2.0,71,0.00,,,0.00,Wunderground v.1.15,2013-03-16 17:20:00,
2013-03-16 10:30:00,60.1,49.9,30.38,SE,139,1.0,1.0,69,0.00,,,0.00,Wunderground v.1.15,2013-03-16 17:30:00,
2013-03-16 10:40:00,59.6,49.8,30.38,West,277,1.0,2.0,70,0.00,,,0.00,Wunderground v.1.15,2013-03-16 17:40:00,
2013-03-16 10:45:00,57.6,49.0,30.38,WNW,285,2.0,3.0,73,0.00,,,0.00,Wunderground v.1.15,2013-03-16 17:45:00,
2013-03-16 10:55:00,58.0,48.3,30.39,NW,325,2.0,4.0,70,0.00,,,0.00,Wunderground v.1.15,2013-03-16 17:55:00,
2013-03-16 11:00:00,58.5,47.2,30.39,NNW,333,3.0,3.0,66,0.00,,,0.00,Wunderground v.1.15,2013-03-16 18:00:00,
2013-03-16 11:10:00,60.1,48.7,30.39,West,280,2.0,3.0,66,0.00,,,0.00,Wunderground v.1.15,2013-03-16 18:10:00,
2013-03-16 11:20:00,59.4,48.0,30.40,NNW,330,3.0,3.0,66,0.00,,,0.00,Wunderground v.1.15,2013-03-16 18:20:00,
2013-03-16 11:30:00,60.9,49.5,30.39,West,266,2.0,2.0,66,0.00,,,0.00,Wunderground v.1.15,2013-03-16 18:30:00,
2013-03-16 11:35:00,61.8,48.2,30.39,NW,319,1.0,2.0,61,0.00,,,0.00,Wunderground v.1.15,2013-03-16 18:35:00,
2013-03-16 11:45:00,62.5,47.1,30.39,WSW,251,2.0,2.0,57,0.00,,,0.00,Wunderground v.1.15,2013-03-16 18:45:00,
2013-03-16 11:55:00,62.9,46.5,30.39,West,281,2.0,2.0,55,0.00,,,0.00,Wunderground v.1.15,2013-03-16 18:55:00,
2013-03-16 12:00:00,63.5,47.5,30.38,West,260,1.0,1.0,56,0.00,,,0.00,Wunderground v.1.15,2013-03-16 19:00:00,
2013-03-16 12:10:00,64.2,45.7,30.38,WSW,248,2.0,3.0,51,0.00,,,0.00,Wunderground v.1.15,2013-03-16 19:10:00,
2013-03-16 12:15:00,64.1,46.1,30.37,NW,314,2.0,3.0,52,0.00,,,0.00,Wunderground v.1.15,2013-03-16 19:15:00,
2013-03-16 12:20:00,64.8,46.2,30.37,WSW,240,2.0,2.0,51,0.00,,,0.00,Wunderground v.1.15,2013-03-16 19:20:00,
2013-03-16 12:30:00,66.2,47.5,30.37,WSW,246,2.0,3.0,51,0.00,,,0.00,Wunderground v.1.15,2013-03-16 19:30:00,
2013-03-16 12:40:00,68.4,46.2,30.37,ESE,105,1.0,1.0,45,0.00,,,0.00,Wunderground v.1.15,2013-03-16 19:40:00,
2013-03-16 12:45:00,69.4,47.7,30.36,West,263,1.0,1.0,46,0.00,,,0.00,Wunderground v.1.15,2013-03-16 19:45:00,
2013-03-16 12:55:00,68.5,46.9,30.36,WSW,242,2.0,2.0,46,0.00,,,0.00,Wunderground v.1.15,2013-03-16 19:55:00,
2013-03-16 13:00:00,69.1,45.7,30.35,SW,216,2.0,2.0,43,0.00,,,0.00,Wunderground v.1.15,2013-03-16 20:00:00,
2013-03-16 13:10:00,70.1,41.9,30.35,West,264,2.0,2.0,36,0.00,,,0.00,Wunderground v.1.15,2013-03-16 20:10:00,
2013-03-16 13:20:00,71.0,40.4,30.34,West,269,2.0,2.0,33,0.00,,,0.00,Wunderground v.1.15,2013-03-16 20:20:00,
2013-03-16 13:30:00,71.3,37.4,30.34,SW,216,2.0,2.0,29,0.00,,,0.00,Wunderground v.1.15,2013-03-16 20:30:00,
2013-03-16 13:35:00,71.8,36.0,30.33,SW,214,2.0,2.0,27,0.00,,,0.00,Wunderground v.1.15,2013-03-16 20:35:00,
2013-03-16 13:40:00,72.2,35.4,30.34,WSW,248,2.0,2.0,26,0.00,,,0.00,Wunderground v.1.15,2013-03-16 20:40:00,
2013-03-16 13:50:00,72.0,35.2,30.34,West,269,2.0,2.0,26,0.00,,,0.00,Wunderground v.1.15,2013-03-16 20:50:00,
2013-03-16 13:55:00,72.2,36.3,30.33,West,262,2.0,2.0,27,0.00,,,0.00,Wunderground v.1.15,2013-03-16 20:55:00,
2013-03-16 14:00:00,72.8,35.9,30.33,WSW,255,2.0,3.0,26,0.00,,,0.00,Wunderground v.1.15,2013-03-16 21:00:00,
2013-03-16 14:10:00,72.8,37.8,30.33,WNW,288,2.0,2.0,28,0.00,,,0.00,Wunderground v.1.15,2013-03-16 21:10:00,
2013-03-16 14:15:00,73.3,37.3,30.33,WNW,284,2.0,4.0,27,0.00,,,0.00,Wunderground v.1.15,2013-03-16 21:15:00,
2013-03-16 14:25:00,74.2,41.6,30.32,South,181,1.0,2.0,31,0.00,,,0.00,Wunderground v.1.15,2013-03-16 21:25:00,
2013-03-16 14:30:00,74.7,39.4,30.32,South,169,2.0,2.0,28,0.00,,,0.00,Wunderground v.1.15,2013-03-16 21:30:00,
2013-03-16 14:40:00,74.6,39.3,30.32,WSW,252,4.0,5.0,28,0.00,,,0.00,Wunderground v.1.15,2013-03-16 21:40:00,
2013-03-16 14:45:00,74.6,41.1,30.31,SSW,207,5.0,5.0,30,0.00,,,0.00,Wunderground v.1.15,2013-03-16 21:45:00,
2013-03-16 14:55:00,74.8,43.8,30.31,SSW,200,4.0,4.0,33,0.00,,,0.00,Wunderground v.1.15,2013-03-16 21:55:00,
2013-03-16 15:00:00,74.8,45.3,30.31,SSW,196,5.0,6.0,35,0.00,,,0.00,Wunderground v.1.15,2013-03-16 22:00:00,
2013-03-16 15:05:00,74.3,45.6,30.31,SW,219,6.0,8.0,36,0.00,,,0.00,Wunderground v.1.15,2013-03-16 22:05:00,
2013-03-16 15:15:00,74.0,45.3,30.30,SW,231,6.0,9.0,36,0.00,,,0.00,Wunderground v.1.15,2013-03-16 22:15:00,
2013-03-16 15:25:00,73.7,46.5,30.30,SSW,202,5.0,6.0,38,0.00,,,0.00,Wunderground v.1.15,2013-03-16 22:25:00,
2013-03-16 15:35:00,73.9,43.8,30.30,SSW,212,6.0,6.0,34,0.00,,,0.00,Wunderground v.1.15,2013-03-16 22:35:00,
2013-03-16 15:45:00,73.7,44.3,30.30,SSW,204,6.0,6.0,35,0.00,,,0.00,Wunderground v.1.15,2013-03-16 22:45:00,
2013-03-16 15:50:00,73.5,44.9,30.30,SSW,197,6.0,6.0,36,0.00,,,0.00,Wunderground v.1.15,2013-03-16 22:50:00,
2013-03-16 15:55:00,73.3,45.4,30.30,SW,225,7.0,9.0,37,0.00,,,0.00,Wunderground v.1.15,2013-03-16 22:55:00,
2013-03-16 16:00:00,73.1,45.3,30.29,South,177,6.0,6.0,37,0.00,,,0.00,Wunderground v.1.15,2013-03-16 23:00:00,
2013-03-16 16:10:00,73.6,45.7,30.29,SW,229,7.0,7.0,37,0.00,,,0.00,Wunderground v.1.15,2013-03-16 23:10:00,
2013-03-16 16:15:00,73.6,45.0,30.29,SW,230,8.0,13.0,36,0.00,,,0.00,Wunderground v.1.15,2013-03-16 23:15:00,
2013-03-16 16:20:00,73.5,44.2,30.29,South,181,8.0,8.0,35,0.00,,,0.00,Wunderground v.1.15,2013-03-16 23:20:00,
2013-03-16 16:30:00,73.6,41.9,30.28,SSW,211,8.0,8.0,32,0.00,,,0.00,Wunderground v.1.15,2013-03-16 23:30:00,
2013-03-16 16:40:00,73.6,39.4,30.28,SSW,195,8.0,8.0,29,0.00,,,0.00,Wunderground v.1.15,2013-03-16 23:40:00,
2013-03-16 16:50:00,73.6,39.4,30.28,SSW,198,9.0,9.0,29,0.00,,,0.00,Wunderground v.1.15,2013-03-16 23:50:00,
2013-03-16 17:00:00,73.6,38.5,30.28,SW,214,8.0,9.0,28,0.00,,,0.00,Wunderground v.1.15,2013-03-17 00:00:00,
2013-03-16 17:10:00,73.3,39.1,30.28,WSW,256,7.0,7.0,29,0.00,,,0.00,Wunderground v.1.15,2013-03-17 00:10:00,
2013-03-16 17:15:00,73.1,38.9,30.28,SW,225,7.0,10.0,29,0.00,,,0.00,Wunderground v.1.15,2013-03-17 00:15:00,
2013-03-16 17:25:00,73.2,40.7,30.28,SW,228,8.0,8.0,31,0.00,,,0.00,Wunderground v.1.15,2013-03-17 00:25:00,
2013-03-16 17:30:00,72.6,37.6,30.28,SW,222,7.0,8.0,28,0.00,,,0.00,Wunderground v.1.15,2013-03-17 00:30:00,
2013-03-16 17:40:00,71.5,38.4,30.28,SSW,213,6.0,7.0,30,0.00,,,0.00,Wunderground v.1.15,2013-03-17 00:40:00,
2013-03-16 17:45:00,71.0,38.0,30.28,SSW,197,7.0,7.0,30,0.00,,,0.00,Wunderground v.1.15,2013-03-17 00:45:00,
2013-03-16 17:55:00,70.3,38.2,30.28,SW,223,6.0,8.0,31,0.00,,,0.00,Wunderground v.1.15,2013-03-17 00:55:00,
2013-03-16 18:00:00,70.0,39.6,30.29,SW,218,6.0,8.0,33,0.00,,,0.00,Wunderground v.1.15,2013-03-17 01:00:00,
2013-03-16 18:10:00,69.8,39.4,30.29,SW,219,5.0,5.0,33,0.00,,,0.00,Wunderground v.1.15,2013-03-17 01:10:00,
2013-03-16 18:20:00,69.2,39.6,30.29,SW,217,4.0,4.0,34,0.00,,,0.00,Wunderground v.1.15,2013-03-17 01:20:00,
2013-03-16 18:30:00,68.9,39.4,30.30,WNW,288,3.0,3.0,34,0.00,,,0.00,Wunderground v.1.15,2013-03-17 01:30:00,
2013-03-16 18:40:00,68.3,38.8,30.30,North,349,2.0,2.0,34,0.00,,,0.00,Wunderground v.1.15,2013-03-17 01:40:00,
2013-03-16 18:50:00,68.6,40.6,30.30,SW,216,2.0,2.0,36,0.00,,,0.00,Wunderground v.1.15,2013-03-17 01:50:00,
2013-03-16 18:55:00,68.6,40.6,30.30,WNW,297,2.0,2.0,36,0.00,,,0.00,Wunderground v.1.15,2013-03-17 01:55:00,
2013-03-16 19:05:00,68.0,41.4,30.30,WSW,238,3.0,3.0,38,0.00,,,0.00,Wunderground v.1.15,2013-03-17 02:05:00,
2013-03-16 19:15:00,66.4,45.5,30.30,SW,235,2.0,3.0,47,0.00,,,0.00,Wunderground v.1.15,2013-03-17 02:15:00,
2013-03-16 19:20:00,65.3,46.7,30.30,WNW,298,1.0,1.0,51,0.00,,,0.00,Wunderground v.1.15,2013-03-17 02:20:00,
2013-03-16 19:30:00,63.6,46.1,30.30,West,270,1.0,2.0,53,0.00,,,0.00,Wunderground v.1.15,2013-03-17 02:30:00,
2013-03-16 19:35:00,63.6,46.1,30.31,West,271,1.0,2.0,53,0.00,,,0.00,Wunderground v.1.15,2013-03-17 02:35:00,
2013-03-16 19:45:00,63.6,44.1,30.30,NNE,12,1.0,1.0,49,0.00,,,0.00,Wunderground v.1.15,2013-03-17 02:45:00,
2013-03-16 19:55:00,64.1,41.7,30.31,SW,225,1.0,2.0,44,0.00,,,0.00,Wunderground v.1.15,2013-03-17 02:55:00,
2013-03-16 20:00:00,64.5,41.5,30.31,WNW,300,3.0,4.0,43,0.00,,,0.00,Wunderground v.1.15,2013-03-17 03:00:00,
2013-03-16 20:10:00,64.6,41.0,30.32,West,280,2.0,3.0,42,0.00,,,0.00,Wunderground v.1.15,2013-03-17 03:10:00,
2013-03-16 20:20:00,63.7,41.9,30.32,West,267,1.0,2.0,45,0.00,,,0.00,Wunderground v.1.15,2013-03-17 03:20:00,
2013-03-16 20:30:00,63.3,42.7,30.33,North,1,2.0,2.0,47,0.00,,,0.00,Wunderground v.1.15,2013-03-17 03:30:00,
2013-03-16 20:35:00,63.1,43.6,30.33,WSW,243,2.0,2.0,49,0.00,,,0.00,Wunderground v.1.15,2013-03-17 03:35:00,
2013-03-16 20:40:00,62.7,44.8,30.33,SW,217,2.0,2.0,52,0.00,,,0.00,Wunderground v.1.15,2013-03-17 03:40:00,
2013-03-16 20:50:00,61.9,45.5,30.34,SSE,167,2.0,2.0,55,0.00,,,0.00,Wunderground v.1.15,2013-03-17 03:50:00,
2013-03-16 21:00:00,61.0,43.7,30.34,West,280,1.0,5.0,53,0.00,,,0.00,Wunderground v.1.15,2013-03-17 04:00:00,
2013-03-16 21:10:00,61.5,42.2,30.34,NNW,341,3.0,3.0,49,0.00,,,0.00,Wunderground v.1.15,2013-03-17 04:10:00,
2013-03-16 21:15:00,61.6,42.2,30.35,WNW,285,3.0,3.0,49,0.00,,,0.00,Wunderground v.1.15,2013-03-17 04:15:00,
2013-03-16 21:20:00,61.6,42.8,30.35,WNW,288,3.0,5.0,50,0.00,,,0.00,Wunderground v.1.15,2013-03-17 04:20:00,
2013-03-16 21:30:00,61.1,44.3,30.35,SW,228,3.0,3.0,54,0.00,,,0.00,Wunderground v.1.15,2013-03-17 04:30:00,
2013-03-16 21:40:00,59.3,43.6,30.36,WSW,240,1.0,2.0,56,0.00,,,0.00,Wunderground v.1.15,2013-03-17 04:40:00,
2013-03-16 21:45:00,59.9,42.2,30.36,SW,220,2.0,2.0,52,0.00,,,0.00,Wunderground v.1.15,2013-03-17 04:45:00,
2013-03-16 21:55:00,59.9,44.6,30.36,SSE,163,2.0,3.0,57,0.00,,,0.00,Wunderground v.1.15,2013-03-17 04:55:00,
2013-03-16 22:00:00,59.1,43.4,30.37,North,11,1.0,6.0,56,0.00,,,0.00,Wunderground v.1.15,2013-03-17 05:00:00,
2013-03-16 22:10:00,59.3,43.1,30.37,WNW,283,2.0,2.0,55,0.00,,,0.00,Wunderground v.1.15,2013-03-17 05:10:00,
2013-03-16 22:15:00,59.5,44.7,30.37,NNW,339,3.0,3.0,58,0.00,,,0.00,Wunderground v.1.15,2013-03-17 05:15:00,
2013-03-16 22:25:00,58.3,44.5,30.38,SE,136,1.0,2.0,60,0.00,,,0.00,Wunderground v.1.15,2013-03-17 05:25:00,
2013-03-16 22:30:00,58.1,44.3,30.38,WSW,246,1.0,1.0,60,0.00,,,0.00,Wunderground v.1.15,2013-03-17 05:30:00,
2013-03-16 22:40:00,57.8,45.3,30.38,SW,221,1.0,1.0,63,0.00,,,0.00,Wunderground v.1.15,2013-03-17 05:40:00,
2013-03-16 22:45:00,57.9,45.0,30.38,WNW,288,1.0,3.0,62,0.00,,,0.00,Wunderground v.1.15,2013-03-17 05:45:00,
2013-03-16 22:55:00,58.7,42.6,30.38,North,1,3.0,3.0,55,0.00,,,0.00,Wunderground v.1.15,2013-03-17 05:55:00,
2013-03-16 23:05:00,59.0,43.3,30.39,ESE,120,3.0,4.0,56,0.00,,,0.00,Wunderground v.1.15,2013-03-17 06:05:00,
2013-03-16 23:15:00,57.8,42.2,30.39,WNW,300,1.0,3.0,56,0.00,,,0.00,Wunderground v.1.15,2013-03-17 06:15:00,
2013-03-16 23:25:00,57.8,42.7,30.39,WNW,297,2.0,5.0,57,0.00,,,0.00,Wunderground v.1.15,2013-03-17 06:25:00,
2013-03-16 23:35:00,57.8,42.7,30.39,West,260,2.0,2.0,57,0.00,,,0.00,Wunderground v.1.15,2013-03-17 06:35:00,
2013-03-16 23:45:00,57.1,42.9,30.39,NW,314,0.0,1.0,59,0.00,,,0.00,Wunderground v.1.15,2013-03-17 06:45:00,
2013-03-16 23:50:00,56.6,42.9,30.39,WNW,286,0.0,0.0,60,0.00,,,0.00,Wunderground v.1.15,2013-03-17 06:50:00,
2013-03-16 23:55:00,56.2,42.9,30.39,WNW,286,0.0,0.0,61,0.00,,,0.00,Wunderground v.1.15,2013-03-17 06:55:00,